Weather History for Rome, OR

Change the Weather History Date:

Sunday, November 4, 2012

  Actual Average Record
Temperature  
Mean Temperature 49 °F 41 °F  
Max Temperature 65 °F 55 °F 73 °F (1975)
Min Temperature 32 °F 27 °F 14 °F (2011)
Degree Days  
Heating Degree Days 16 24  
Month to date heating degree days 71 94  
Since 1 July heating degree days 618 851  
Cooling Degree Days 0 0  
Month to date cooling degree days 0 0  
Year to date cooling degree days 674 507  
Moisture  
Dew Point 29 °F    
Average Humidity 46    
Maximum Humidity 64    
Minimum Humidity 28    
Precipitation  
Precipitation 0.00 in 0.03 in 0.57 in (2011)
Month to date precipitation 0.00 0.13  
Year to date precipitation 4.50 7.60  
Sea Level Pressure  
Sea Level Pressure 30.36 in    
Wind  
Wind Speed 4 mph (SE)    
Max Wind Speed 9 mph    
Max Gust Speed 10 mph    
T = Trace of Precipitation, MM = Missing Value Source: NWS Daily Summary

Daily Weather History Graph

Daily Weather History Graph

Search for Another Location

Airport:

Trip Planner

Search our weather history database for the weather conditions in past years. The results will help you decide how hot, cold, wet, or windy it might be!

Date:

Astronomy

Nov. 04, 2012 Rise Set
Actual Time 6:29 AM PST 4:39 PM PST
Civil Twilight 6:00 AM PST 5:09 PM PST
Nautical Twilight 5:26 AM PST 5:42 PM PST
Astronomical Twilight 4:53 AM PST 6:15 PM PST
Moon 9:21 PM PST (11/4) 11:17 AM PST (11/4)
Length of Visible Light 11h 09m
Length of Day
10h 10m
Waning Gibbous, 71% of the Moon is Illuminated
Nov 4
Waning Gibbous
Nov 6
Last Quarter
Nov 13
New
Nov 20
First Quarter
Nov 28
Full

Hourly Weather History & Observations

Time (PST) Temp. Windchill Dew Point Humidity Pressure Visibility Wind Dir Wind Speed Gust Speed Precip Events Conditions
12:52 AM 46.0 °F - 27.0 °F 47% 30.24 in - Calm Calm - N/A   Unknown
1:52 AM 46.0 °F 43.1 °F 27.0 °F 47% 30.24 in - South 5.8 mph - N/A   Unknown
1:52 AM 43.0 °F 38.8 °F 26.1 °F 51% 30.25 in - SSE 6.9 mph - N/A   Unknown
2:52 AM 39.9 °F - 25.0 °F 55% 30.27 in - Calm Calm - N/A   Unknown
3:52 AM 37.0 °F 32.4 °F 25.0 °F 62% 30.28 in - South 5.8 mph - N/A   Unknown
4:52 AM 34.0 °F 28.8 °F 23.0 °F 64% 30.32 in - SSE 5.8 mph - N/A   Unknown
5:52 AM 37.9 °F 35.5 °F 25.0 °F 60% 30.31 in - South 3.5 mph - N/A   Unknown
6:52 AM 37.9 °F - 25.0 °F 60% 30.36 in - Calm Calm - N/A   Unknown
7:52 AM 46.0 °F - 28.0 °F 50% 30.37 in - Calm Calm - N/A   Unknown
8:52 AM 53.1 °F - 28.9 °F 40% 30.38 in - NE 4.6 mph - N/A   Unknown
9:52 AM 59.0 °F - 30.0 °F 33% 30.38 in - NNE 3.5 mph - N/A   Unknown
10:52 AM 62.1 °F - 34.0 °F 35% 30.39 in - Calm Calm - N/A   Unknown
11:52 AM 62.1 °F - 34.0 °F 35% 30.36 in - Calm Calm - N/A   Unknown
12:52 PM 63.0 °F - 30.9 °F 30% 30.35 in - Calm Calm - N/A   Unknown
1:52 PM 64.9 °F - 30.9 °F 28% 30.35 in - NNW 3.5 mph - N/A   Unknown
2:52 PM 64.9 °F - 32.0 °F 29% 30.36 in - Calm Calm - N/A   Unknown
3:52 PM 64.0 °F - 32.0 °F 30% 30.37 in - Calm Calm - N/A   Unknown
4:52 PM 59.0 °F - 30.9 °F 35% 30.40 in - NNE 5.8 mph - N/A   Unknown
5:52 PM 50.0 °F - 28.9 °F 44% 30.43 in - ENE 8.1 mph - N/A   Unknown
6:52 PM 53.1 °F - 30.9 °F 43% 30.42 in - East 4.6 mph - N/A   Unknown
7:52 PM 45.0 °F 41.8 °F 28.0 °F 52% 30.43 in - SW 5.8 mph - N/A   Unknown
8:52 PM 43.0 °F 40.3 °F 28.0 °F 56% 30.43 in - South 4.6 mph - N/A   Unknown
9:52 PM 41.0 °F 37.1 °F 27.0 °F 57% 30.43 in - South 5.8 mph - N/A   Unknown
10:52 PM 42.1 °F 38.4 °F 27.0 °F 55% 30.42 in - SSE 5.8 mph - N/A   Unknown